When you browse on this site, cookies collect data to enhance your experience and personalize the content and advertising you see.
Visit our Privacy Policy to learn more. By continuing to use the site, you agree to this use of cookies and data.
  • en Suisse
  • Liste des pays
  • À 7 jours
  • Température de l'eau
  • Carte météo
  • Widgets météo
  • user-avatar
    Se connecter

    Météo par heure à Chakhansur

    Ce jour, 14 Octobre, Lundi

    Heure Température Précipitation Vent Pression Humidité
    00:00 +21°C° 0 mm 7 m/s 720 mmHg 24%
    01:00 +21°C° 0 mm 8 m/s 720 mmHg 26%
    02:00 +18°C° 0 mm 9 m/s 720 mmHg 33%
    03:00 +17°C° 0 mm 10 m/s 720 mmHg 39%
    04:00 +16°C° 0 mm 10 m/s 720 mmHg 45%
    05:00 +16°C° 0 mm 10 m/s 721 mmHg 46%
    06:00 +16°C° 0 mm 10 m/s 721 mmHg 47%
    07:00 +15°C° 0 mm 9 m/s 722 mmHg 48%
    08:00 +17°C° 0 mm 10 m/s 722 mmHg 42%
    09:00 +21°C° 0 mm 10 m/s 723 mmHg 36%
    10:00 +23°C° 0 mm 10 m/s 723 mmHg 27%
    11:00 +26°C° 0 mm 10 m/s 723 mmHg 24%
    12:00 +27°C° 0 mm 11 m/s 722 mmHg 21%
    13:00 +29°C° 0 mm 11 m/s 722 mmHg 18%
    14:00 +29°C° 0 mm 11 m/s 721 mmHg 18%
    15:00 +29°C° 0 mm 11 m/s 721 mmHg 19%
    16:00 +28°C° 0 mm 11 m/s 721 mmHg 19%
    17:00 +26°C° 0 mm 11 m/s 721 mmHg 23%
    18:00 +23°C° 0 mm 11 m/s 721 mmHg 27%
    19:00 +22°C° 0 mm 11 m/s 721 mmHg 31%
    20:00 +19°C° 0 mm 10 m/s 721 mmHg 33%
    21:00 +18°C° 0 mm 10 m/s 721 mmHg 35%
    22:00 +17°C° 0 mm 9 m/s 721 mmHg 37%
    23:00 +17°C° 0 mm 9 m/s 721 mmHg 37%

    Demain, 15 Octobre, Mardi

    Heure Température Précipitation Vent Pression Humidité
    00:00 +16°C° 0 mm 8 m/s 721 mmHg 36%
    01:00 +15°C° 0 mm 7 m/s 721 mmHg 35%
    02:00 +15°C° 0 mm 7 m/s 721 mmHg 35%
    03:00 +14°C° 0 mm 7 m/s 721 mmHg 34%
    04:00 +13°C° 0 mm 6 m/s 721 mmHg 34%
    05:00 +13°C° 0 mm 6 m/s 721 mmHg 34%
    06:00 +13°C° 0 mm 5 m/s 721 mmHg 34%
    07:00 +13°C° 0 mm 5 m/s 722 mmHg 34%
    08:00 +15°C° 0 mm 5 m/s 722 mmHg 31%
    09:00 +19°C° 0 mm 5 m/s 722 mmHg 28%
    10:00 +21°C° 0 mm 5 m/s 723 mmHg 25%
    11:00 +23°C° 0 mm 5 m/s 722 mmHg 23%
    12:00 +26°C° 0 mm 5 m/s 722 mmHg 20%
    13:00 +27°C° 0 mm 5 m/s 722 mmHg 18%
    14:00 +28°C° 0 mm 5 m/s 721 mmHg 17%
    15:00 +28°C° 0 mm 4 m/s 721 mmHg 16%
    16:00 +28°C° 0 mm 4 m/s 721 mmHg 16%
    17:00 +26°C° 0 mm 4 m/s 721 mmHg 18%
    18:00 +23°C° 0 mm 4 m/s 721 mmHg 21%
    19:00 +21°C° 0 mm 4 m/s 721 mmHg 23%
    20:00 +20°C° 0 mm 4 m/s 721 mmHg 25%
    21:00 +19°C° 0 mm 4 m/s 721 mmHg 27%
    22:00 +18°C° 0 mm 4 m/s 721 mmHg 29%
    23:00 +18°C° 0 mm 4 m/s 721 mmHg 30%

    Après-demain, 16 Octobre, Mercredi

    Heure Température Précipitation Vent Pression Humidité
    00:00 +17°C° 0 mm 4 m/s 721 mmHg 31%
    01:00 +15°C° 0 mm 4 m/s 721 mmHg 32%
    02:00 +14°C° 0 mm 4 m/s 720 mmHg 33%
    03:00 +13°C° 0 mm 3 m/s 720 mmHg 33%
    04:00 +13°C° 0 mm 3 m/s 720 mmHg 34%
    05:00 +13°C° 0 mm 3 m/s 721 mmHg 33%
    06:00 +14°C° 0 mm 3 m/s 721 mmHg 31%
    07:00 +14°C° 0 mm 3 m/s 721 mmHg 30%
    08:00 +17°C° 0 mm 3 m/s 722 mmHg 26%
    09:00 +20°C° 0 mm 2 m/s 722 mmHg 23%
    10:00 +23°C° 0 mm 2 m/s 722 mmHg 19%
    11:00 +25°C° 0 mm 2 m/s 722 mmHg 17%
    12:00 +27°C° 0 mm 2 m/s 721 mmHg 15%
    13:00 +29°C° 0 mm 3 m/s 721 mmHg 13%
    14:00 +29°C° 0 mm 2 m/s 720 mmHg 13%
    15:00 +29°C° 0 mm 2 m/s 720 mmHg 12%
    16:00 +30°C° 0 mm 2 m/s 719 mmHg 12%
    17:00 +27°C° 0 mm 2 m/s 719 mmHg 15%
    18:00 +23°C° 0 mm 1 m/s 719 mmHg 18%
    19:00 +20°C° 0 mm 1 m/s 719 mmHg 22%
    20:00 +19°C° 0 mm 2 m/s 719 mmHg 22%
    21:00 +19°C° 0 mm 2 m/s 719 mmHg 21%
    22:00 +20°C° 0 mm 3 m/s 720 mmHg 21%
    23:00 +19°C° 0 mm 3 m/s 720 mmHg 22%

    17 Octobre, Jeudi

    Heure Température Précipitation Vent Pression Humidité
    00:00 +18°C° 0 mm 3 m/s 720 mmHg 23%
    01:00 +17°C° 0 mm 3 m/s 719 mmHg 24%
    02:00 +17°C° 0 mm 3 m/s 719 mmHg 26%
    03:00 +16°C° 0 mm 3 m/s 719 mmHg 27%
    04:00 +16°C° 0 mm 3 m/s 719 mmHg 29%
    05:00 +16°C° 0 mm 3 m/s 720 mmHg 29%
    06:00 +16°C° 0 mm 3 m/s 720 mmHg 29%
    07:00 +17°C° 0 mm 4 m/s 721 mmHg 29%
    08:00 +20°C° 0 mm 4 m/s 721 mmHg 24%
    09:00 +23°C° 0 mm 5 m/s 721 mmHg 20%
    10:00 +27°C° 0 mm 5 m/s 722 mmHg 15%
    11:00 +28°C° 0 mm 5 m/s 721 mmHg 13%
    12:00 +30°C° 0 mm 6 m/s 721 mmHg 11%
    13:00 +33°C° 0 mm 6 m/s 720 mmHg 9%
    14:00 +32°C° 0 mm 6 m/s 720 mmHg 10%
    15:00 +32°C° 0 mm 6 m/s 720 mmHg 10%
    16:00 +32°C° 0 mm 5 m/s 719 mmHg 10%
    17:00 +29°C° 0 mm 5 m/s 719 mmHg 12%
    18:00 +26°C° 0 mm 5 m/s 719 mmHg 14%
    19:00 +23°C° 0 mm 4 m/s 719 mmHg 16%
    20:00 +22°C° 0 mm 5 m/s 719 mmHg 17%
    21:00 +21°C° 0 mm 5 m/s 720 mmHg 18%
    22:00 +20°C° 0 mm 5 m/s 720 mmHg 19%
    23:00 +20°C° 0 mm 5 m/s 719 mmHg 20%

    18 Octobre, Vendredi

    Heure Température Précipitation Vent Pression Humidité
    00:00 +19°C° 0 mm 5 m/s 719 mmHg 21%
    01:00 +17°C° 0 mm 5 m/s 719 mmHg 22%
    02:00 +16°C° 0 mm 5 m/s 719 mmHg 24%
    03:00 +15°C° 0 mm 4 m/s 719 mmHg 26%
    04:00 +14°C° 0 mm 4 m/s 719 mmHg 28%
    05:00 +14°C° 0 mm 3 m/s 719 mmHg 29%
    06:00 +14°C° 0 mm 3 m/s 719 mmHg 29%
    07:00 +16°C° 0 mm 3 m/s 720 mmHg 29%
    08:00 +18°C° 0 mm 3 m/s 720 mmHg 25%
    09:00 +21°C° 0 mm 3 m/s 720 mmHg 21%
    10:00 +25°C° 0 mm 3 m/s 721 mmHg 17%
    11:00 +27°C° 0 mm 3 m/s 720 mmHg 15%
    12:00 +28°C° 0 mm 3 m/s 720 mmHg 13%
    13:00 +30°C° 0 mm 2 m/s 719 mmHg 11%
    14:00 +31°C° 0 mm 2 m/s 719 mmHg 10%
    15:00 +31°C° 0 mm 2 m/s 719 mmHg 10%
    16:00 +31°C° 0 mm 2 m/s 718 mmHg 9%
    17:00 +28°C° 0 mm 1 m/s 718 mmHg 12%
    18:00 +24°C° 0 mm 1 m/s 718 mmHg 15%
    19:00 +20°C° 0 mm 1 m/s 718 mmHg 18%
    20:00 +20°C° 0 mm 1 m/s 718 mmHg 19%
    21:00 +19°C° 0 mm 2 m/s 718 mmHg 19%
    22:00 +19°C° 0 mm 2 m/s 718 mmHg 19%
    23:00 +18°C° 0 mm 2 m/s 718 mmHg 20%

    19 Octobre, Samedi

    Heure Température Précipitation Vent Pression Humidité
    00:00 +18°C° 0 mm 2 m/s 718 mmHg 21%
    01:00 +17°C° 0 mm 2 m/s 718 mmHg 22%
    02:00 +16°C° 0 mm 2 m/s 718 mmHg 23%
    03:00 +15°C° 0 mm 1 m/s 718 mmHg 25%
    04:00 +13°C° 0 mm 0 m/s 718 mmHg 26%
    05:00 +16°C° 0 mm 1 m/s 719 mmHg 24%
    06:00 +18°C° 0 mm 1 m/s 719 mmHg 22%
    07:00 +19°C° 0 mm 1 m/s 720 mmHg 20%
    08:00 +22°C° 0 mm 1 m/s 720 mmHg 17%
    09:00 +25°C° 0 mm 1 m/s 721 mmHg 14%
    10:00 +26°C° 0 mm 0 m/s 721 mmHg 12%
    11:00 +27°C° 0 mm 0 m/s 721 mmHg 11%
    12:00 +29°C° 0 mm 0 m/s 721 mmHg 9%
    13:00 +30°C° 0 mm 0 m/s 720 mmHg 8%
    14:00 +30°C° 0 mm 0 m/s 720 mmHg 8%
    15:00 +30°C° 0 mm 0 m/s 719 mmHg 8%
    16:00 +31°C° 0 mm 0 m/s 719 mmHg 7%
    17:00 +30°C° 0 mm 1 m/s 719 mmHg 9%
    18:00 +27°C° 0 mm 1 m/s 719 mmHg 11%
    19:00 +24°C° 0 mm 1 m/s 719 mmHg 13%
    20:00 +23°C° 0 mm 1 m/s 719 mmHg 13%
    21:00 +23°C° 0 mm 1 m/s 719 mmHg 13%
    22:00 +23°C° 0 mm 1 m/s 719 mmHg 14%
    23:00 +22°C° 0 mm 1 m/s 719 mmHg 14%
    Voir plus